Погода в Козине

Украина / Киевская область     49°42′03″N   31°06′36″E
темп.,
°C
ветер,
м/с
пор.,
м/с
влажн.,
%
обл.,
%
осадки,
мм/ч
давл.,
гПа
погр.,
м
20 апреля, вт
вт2000:00+8ссв2372100 0.0 101463
03:00+7ссв3484100 0.1 1012117
06:00+6ссв3688100 0.1 1011214
09:00+7с4581100 0.1 1011287
12:00+11ссв455944 0.1 10091251
15:00+12ссз5554100 0.2 10081521
18:00+11ссз676229 0.1 10071078
21:00+8сз497731 0.2 1008256
21 апреля, ср
ср2100:00+5сз36925 0.0 1009130
03:00+4зсз34925 0.0 101081
06:00+3з359417 0.0 1010107
09:00+8з467794 0.0 1012508
12:00+12з6754100 0.4 10121623
15:00+13з5648100 0.5 10121989
18:00+12зюз4764100 0.7 1012819
21:00+9юз358097 0.9 1014100
22 апреля, чт
чт2200:00+7юз368998 0.0 1014106
03:00+7зюз379096 0.0 1015126
06:00+7юз3488100 0.0 101679
09:00+11юз477088 0.0 1016376
12:00+16юз575487 0.3 10161525
15:00+17юз6843100 0.6 10152458
18:00+15зюз375999 0.0 1015326
21:00+11ююз237637 0.1 101623
23 апреля, пт
пт2300:00+10ююв478089 0.0 101698
03:00+9ю488831 0.0 1015177
06:00+8ю410897 0.3 1015238
09:00+13ююз611705 0.4 1015534
12:00+17юз7115354 0.3 10141870
15:00+8ссз7987100 1.2 1015408
18:00+5ссз61091100 0.5 1018606
21:00+5сз2386100 1.3 1018455
24 апреля, сб
сб2400:00+4юз379097 0.1 1018335
03:00+3зюз510934 0.1 1017250
06:00+2з613885 0.0 1018533
09:00+3зсз9126316 0.0 10191175
12:00+5зсз91151100 0.1 10192092
15:00+8сз81241100 0.1 10192635
18:00+8зсз612465 0.0 10202478
21:00+5зюз51058100 0.0 1020308